GW0658 Weather Reports


Display with metric or nautical units.
time (UTC)temp
F
wind
direction
speed
MPH
gust
MPH
rain 1hr
in
rain 24hr
in
rain mn
in
humidity
%
barometer
mb
20260503214547 54 0 0.0 2.0 0.00 0.00 0.00 82 1013.5
20260503214016 54 0 0.0 4.0 0.00 0.00 0.00 82 1013.6
20260503213515 54 0 1.0 4.0 0.00 0.00 0.00 82 1013.5
20260503213035 54 238 1.0 3.0 0.00 0.00 0.00 82 1013.5
20260503212517 55 240 0.0 3.0 0.00 0.00 0.00 81 1013.5
20260503212018 55 239 1.0 3.0 0.00 0.00 0.00 80 1013.6
20260503211541 55 229 1.0 3.0 0.00 0.00 0.00 80 1013.6
20260503211017 55 229 1.0 3.0 0.00 0.00 0.00 81 1013.6
20260503210517 55 0 1.0 3.0 0.00 0.00 0.00 80 1013.5
20260503210039 55 247 1.0 3.0 0.00 0.00 0.00 80 1013.6
20260503205517 55 217 2.0 3.0 0.00 0.00 0.00 79 1013.5
20260503205016 55 240 1.0 4.0 0.00 0.00 0.00 80 1013.4
20260503204540 55 246 1.0 4.0 0.00 0.00 0.00 80 1013.4
20260503204015 55 0 1.0 4.0 0.00 0.00 0.00 80 1013.4
20260503203518 55 254 1.0 5.0 0.00 0.00 0.00 80 1013.4
20260503203035 55 237 2.0 7.0 0.00 0.00 0.00 79 1013.4
20260503202521 55 236 2.0 7.0 0.00 0.00 0.00 80 1013.4
20260503202017 55 257 3.0 6.0 0.00 0.00 0.00 79 1013.4
20260503201535 55 238 2.0 5.0 0.00 0.00 0.00 78 1013.5
20260503201017 56 232 2.0 5.0 0.00 0.00 0.00 76 1013.4
20260503200515 56 223 2.0 7.0 0.00 0.00 0.00 75 1013.4
20260503200035 56 269 3.0 7.0 0.00 0.00 0.00 75 1013.3
20260503195515 57 245 1.0 5.0 0.00 0.00 0.00 75 1013.4
20260503195017 57 234 3.0 5.0 0.00 0.00 0.00 73 1013.4
20260503194537 58 239 2.0 5.0 0.00 0.00 0.00 72 1013.4
20260503194018 59 241 3.0 7.0 0.00 0.00 0.00 71 1013.3
20260503193517 59 269 2.0 8.0 0.00 0.00 0.00 71 1013.3
20260503193034 60 231 2.0 8.0 0.00 0.00 0.00 69 1013.3
20260503192517 60 246 2.0 6.0 0.00 0.00 0.00 69 1013.2
20260503192015 59 250 3.0 8.0 0.00 0.00 0.00 70 1013.1
20260503191535 59 229 3.0 8.0 0.00 0.00 0.00 69 1013.1
20260503191016 59 221 2.0 8.0 0.00 0.00 0.00 68 1013.1
20260503190518 60 239 3.0 8.0 0.00 0.00 0.00 67 1013.1
20260503190042 60 246 4.0 8.0 0.00 0.00 0.00 65 1013.1
20260503185514 60 244 3.0 8.0 0.00 0.00 0.00 63 1013.2
20260503185020 61 250 3.0 8.0 0.00 0.00 0.00 64 1013.3
20260503184534 60 227 1.0 5.0 0.00 0.00 0.00 66 1013.3
20260503184018 60 238 2.0 5.0 0.00 0.00 0.00 67 1013.3
20260503183517 60 217 2.0 6.0 0.00 0.00 0.00 65 1013.3
20260503183039 60 254 1.0 6.0 0.00 0.00 0.00 60 1013.3
20260503182517 61 206 2.0 4.0 0.00 0.00 0.00 57 1013.3
20260503182019 61 233 2.0 4.0 0.00 0.00 0.00 62 1013.3
20260503181556 60 227 2.0 4.0 0.00 0.00 0.00 64 1013.4
20260503181019 59 253 0.0 3.0 0.00 0.00 0.00 63 1013.3
20260503180516 58 198 0.0 3.0 0.00 0.00 0.00 62 1013.4
20260503180047 58 225 2.0 3.0 0.00 0.00 0.00 62 1013.4
20260503175521 58 238 1.0 3.0 0.00 0.00 0.00 64 1013.4
20260503175016 58 211 1.0 2.0 0.00 0.00 0.00 63 1013.5
20260503174535 58 232 0.0 3.0 0.00 0.00 0.00 64 1013.4
20260503174019 58 0 1.0 3.0 0.00 0.00 0.00 62 1013.5
20260503173518 58 213 1.0 3.0 0.00 0.00 0.00 61 1013.5
20260503173035 58 251 0.0 4.0 0.00 0.00 0.00 63 1013.4
20260503172517 58 218 1.0 4.0 0.00 0.00 0.00 61 1013.4
20260503172017 58 216 2.0 4.0 0.00 0.00 0.00 63 1013.3
20260503171541 58 211 2.0 4.0 0.00 0.00 0.00 64 1013.4
20260503171017 58 213 1.0 4.0 0.00 0.00 0.00 65 1013.4
20260503170517 58 211 2.0 4.0 0.00 0.00 0.00 64 1013.3
20260503150518 57 0 0.0 0.0 0.00 0.00 0.00 72 1012.5
20260503131020 56 0 0.0 0.0 0.00 0.00 0.00 63 1011.8
20260503130520 56 0 0.0 0.0 0.00 0.00 0.00 62 1011.7
20260503110523 57 0 0.0 0.0 0.00 0.00 0.00 58 1012.3
20260503081535 57 0 0.0 0.0 0.00 0.00 0.00 68 1013.4
20260503081019 57 0 0.0 0.0 0.00 0.00 0.00 68 1013.5
20260503080517 57 0 0.0 0.0 0.00 0.00 0.00 67 1013.5
20260503072518 57 0 0.0 0.0 0.00 0.00 0.00 64 1013.8
20260503072020 58 0 0.0 0.0 0.00 0.00 0.00 64 1013.9
20260503071533 58 0 0.0 0.0 0.00 0.00 0.00 63 1013.9
20260503071018 58 0 0.0 0.0 0.00 0.00 0.00 63 1013.9
20260503070517 58 0 0.0 0.0 0.00 0.00 0.00 63 1013.9
20260503055018 58 0 0.0 0.0 0.00 0.00 0.00 65 1014.2
20260503054539 58 0 0.0 0.0 0.00 0.00 0.00 65 1014.3
20260503054017 58 0 0.0 0.0 0.00 0.00 0.00 66 1014.2
20260503053518 58 0 0.0 0.0 0.00 0.00 0.00 66 1014.3
20260503053033 58 0 0.0 0.0 0.00 0.00 0.00 67 1014.2
20260503052519 58 0 0.0 0.0 0.00 0.00 0.00 67 1014.3
20260503052017 58 0 0.0 0.0 0.00 0.00 0.00 67 1014.3
20260503051539 58 0 0.0 0.0 0.00 0.00 0.00 67 1014.3
20260503051017 58 0 0.0 0.0 0.00 0.00 0.00 66 1014.3
20260503050518 58 0 0.0 0.0 0.00 0.00 0.00 66 1014.2
20260503050035 58 0 0.0 0.0 0.00 0.00 0.00 66 1014.3
20260503045521 58 0 0.0 0.0 0.00 0.00 0.00 66 1014.2
20260503045017 58 0 0.0 0.0 0.00 0.00 0.00 66 1014.2
20260503044545 58 0 0.0 0.0 0.00 0.00 0.00 65 1014.1
20260503044017 58 0 0.0 0.0 0.00 0.00 0.00 64 1014.1
20260503043517 58 0 0.0 0.0 0.00 0.00 0.00 63 1014.0
20260503043034 58 0 0.0 0.0 0.00 0.00 0.00 63 1014.1
20260503042517 58 0 0.0 0.0 0.00 0.00 0.00 63 1014.0
20260503042018 58 0 0.0 0.0 0.00 0.00 0.00 64 1014.0
20260503041555 58 0 0.0 0.0 0.00 0.00 0.00 66 1014.0
20260503041017 58 0 0.0 0.0 0.00 0.00 0.00 68 1013.9
20260503040519 58 0 0.0 0.0 0.00 0.00 0.00 70 1013.9
20260503040050 58 0 0.0 0.0 0.00 0.00 0.00 71 1013.9
20260503035517 58 0 0.0 0.0 0.00 0.00 0.00 71 1013.7
20260503035017 58 0 0.0 0.0 0.00 0.00 0.00 72 1013.8
20260503034539 58 0 0.0 0.0 0.00 0.00 0.00 72 1013.7
20260503034017 58 0 0.0 0.0 0.00 0.00 0.00 73 1013.7
20260503033517 58 0 0.0 0.0 0.00 0.00 0.00 73 1013.7
20260503033041 58 0 0.0 0.0 0.00 0.00 0.00 73 1013.6
20260503032518 58 0 0.0 0.0 0.00 0.00 0.00 74 1013.7
20260503032017 58 0 0.0 0.0 0.00 0.00 0.00 74 1013.6
20260503031535 58 0 0.0 0.0 0.00 0.00 0.00 75 1013.6
20260503031018 58 0 0.0 0.0 0.00 0.00 0.00 76 1013.6
20260503030517 58 0 0.0 0.0 0.00 0.00 0.00 76 1013.6
20260503030036 59 0 0.0 0.0 0.00 0.00 0.00 76 1013.6
20260503025517 59 0 0.0 0.0 0.00 0.00 0.00 77 1013.6
20260503025017 59 0 0.0 0.0 0.00 0.00 0.00 77 1013.5
20260503024538 59 0 0.0 0.0 0.00 0.00 0.00 77 1013.5
20260503024017 60 0 0.0 0.0 0.00 0.00 0.00 77 1013.5
20260503023518 60 0 0.0 0.0 0.00 0.00 0.00 77 1013.5
20260503023035 60 0 0.0 0.0 0.00 0.00 0.00 76 1013.4
20260503022521 61 0 0.0 0.0 0.00 0.00 0.00 76 1013.4
20260503022017 61 0 0.0 0.0 0.00 0.00 0.00 74 1013.5
20260503021535 61 0 0.0 0.0 0.00 0.00 0.00 73 1013.5
20260503021018 62 0 0.0 0.0 0.00 0.00 0.00 73 1013.4
20260503020517 62 0 0.0 0.0 0.00 0.00 0.00 72 1013.4
20260503020034 62 0 0.0 0.0 0.00 0.00 0.00 72 1013.5
20260503015521 62 0 0.0 0.0 0.00 0.00 0.00 71 1013.5
20260503015018 62 0 0.0 0.0 0.00 0.00 0.00 70 1013.5
20260503014536 63 0 0.0 0.0 0.00 0.00 0.00 71 1013.6
20260503014017 63 0 0.0 0.0 0.00 0.00 0.00 73 1013.5
20260503013519 63 0 0.0 0.0 0.00 0.00 0.00 72 1013.6
20260503013035 63 0 0.0 0.0 0.00 0.00 0.00 68 1013.6
20260503012518 63 0 0.0 0.0 0.00 0.00 0.00 67 1013.6
20260503012017 63 0 0.0 0.0 0.00 0.00 0.00 66 1013.6
20260503011537 63 0 0.0 0.0 0.00 0.00 0.00 66 1013.6
20260503011023 63 0 0.0 0.0 0.00 0.00 0.00 66 1013.6
20260503010517 63 0 0.0 0.0 0.00 0.00 0.00 65 1013.6
20260503010042 64 0 0.0 0.0 0.00 0.00 0.00 66 1013.7
20260503005517 64 0 0.0 0.0 0.00 0.00 0.00 64 1013.7
20260503005021 64 0 0.0 3.0 0.00 0.00 0.00 65 1013.8
20260503004603 64 0 0.0 5.0 0.00 0.00 0.00 64 1013.7
20260503004017 64 0 0.0 5.0 0.00 0.00 0.00 65 1013.8
20260503003519 64 186 2.0 6.0 0.00 0.00 0.00 63 1013.8
20260503003034 65 248 2.0 8.0 0.00 0.00 0.00 64 1013.7
20260503002518 65 209 2.0 8.0 0.00 0.00 0.00 63 1013.7
20260503002018 65 252 1.0 6.0 0.00 0.00 0.00 63 1013.7
20260503001536 65 81 1.0 7.0 0.00 0.00 0.00 64 1013.8
20260503001017 65 253 2.0 7.0 0.00 0.00 0.00 65 1013.9
20260503000517 65 194 3.0 8.0 0.00 0.00 0.00 63 1013.9
20260503000035 66 227 3.0 8.0 0.00 0.00 0.00 62 1014.0
20260502235517 66 113 2.0 7.0 0.00 0.00 0.00 62 1013.9
20260502235018 66 217 3.0 7.0 0.00 0.00 0.00 63 1014.0
20260502234549 66 221 2.0 8.0 0.00 0.00 0.00 64 1014.0
20260502234017 66 237 4.0 8.0 0.00 0.00 0.00 61 1014.0
20260502233521 67 0 3.0 8.0 0.00 0.00 0.00 62 1014.0
20260502233034 67 220 4.0 8.0 0.00 0.00 0.00 62 1014.2
20260502232517 67 255 1.0 6.0 0.00 0.00 0.00 61 1014.0
20260502232017 67 213 3.0 9.0 0.00 0.00 0.00 62 1014.1
20260502231542 67 114 3.0 9.0 0.00 0.00 0.00 62 1014.1
20260502231018 67 248 3.0 7.0 0.00 0.00 0.00 61 1014.2
20260502230517 67 236 3.0 7.0 0.00 0.00 0.00 60 1014.3
20260502230036 67 207 3.0 9.0 0.00 0.00 0.00 60 1014.2
20260502225521 67 237 3.0 9.0 0.00 0.00 0.00 61 1014.3
20260502225016 67 207 3.0 9.0 0.00 0.00 0.00 60 1014.3
20260502224535 67 248 3.0 8.0 0.00 0.00 0.00 58 1014.5
20260502224016 67 205 3.0 8.0 0.00 0.00 0.00 57 1014.4
20260502223518 68 178 3.0 8.0 0.00 0.00 0.00 58 1014.6
20260502223034 68 35 2.0 7.0 0.00 0.00 0.00 58 1014.7
20260502222519 67 224 3.0 7.0 0.00 0.00 0.00 58 1014.9
20260502222021 67 240 3.0 6.0 0.00 0.00 0.00 59 1014.8
20260502221537 67 239 2.0 8.0 0.00 0.00 0.00 59 1014.9
20260502221019 67 186 2.0 10.0 0.00 0.00 0.00 58 1015.1
20260502220518 67 211 2.0 10.0 0.00 0.00 0.00 59 1015.0
20260502220045 67 219 4.0 9.0 0.00 0.00 0.00 58 1015.1
20260502215516 67 242 3.0 8.0 0.00 0.00 0.00 57 1015.1
20260502215017 68 247 2.0 7.0 0.00 0.00 0.00 58 1015.2